www.pogodaiklimat.ru

Погода и климат >> Архив погоды >> Мадагаскар >> Antsohihy


ПОГОДА в Antsohihy

  • Прогноз погоды в Antsohihy
  • Монитор погоды в Antsohihy
  • Климат города

АРХИВ ПОГОДЫ в Antsohihy

Время (UTC), дата Ветер
(напр.,м/с)
 
Видим.   Явления Облачность Т
(С)
Тd
(С)
f
(%)
Тe
(С)
Тes
(С)
Комфортность P
(гПа)
Po
(гПа)
Тmin
(С)
Tmax
(С)
R
(мм)
R24
(мм)
S
(см)
03 11.10 ЮВ 2 30 км 1/1 600 м
[Cu Sc]
+22.8 +17.4 72 +28 +28 душно 1016.2 1013.5
06 11.10 Ю 3 40 км 8/1 1200 м
[Sc]
+30.4 +15.0 39 +33 +38 душно 1017.0 1014.3 +24.7 +35.0
09 11.10 З 4 40 км 5/4 600 м
[Cu Sc Ci sp]
+35.6 +14.8 29 +37 +45 душно 1014.5 1011.8
12 11.10 З 5 40 км 6/4 600 м
[Cu Sc Ci sp]
+35.5 +15.3 30 +37 +40 душно 1012.7 1010.0
15 11.10 Ю 3 30 км осадки на расстоянии 9/9 600 м
[Cb cap]
+30.0 +16.1 43 +33 +33 душно 1014.2 1011.5 +35.6
03 12.10 ЮВ 2 30 км ясно +23.0 +17.5 71 +28 +28 душно 1015.4 1012.7
06 12.10 Ю 4 40 км 1/1 600 м
[Cu Sc Ci sp]
+30.7 +16.2 42 +34 +41 очень
душно
1016.4 1013.7 +24.7 +35.6
09 12.10 ЮЗ 4 40 км 1/1 700 м
[Cu hum]
+34.8 +15.4 31 +37 +50 очень
душно
1014.5 1011.8
12 12.10 З 4 40 км 4/4 600 м
[Cu Sc Ci sp]
+36.7 +15.0 28 +38 +42 очень
душно
1013.1 1010.4
15 12.10 Ю 3 30 км 4/4 600 м
[Cb cap]
+28.2 +19.6 60 +34 +34 очень
душно
1013.5 1010.8 +36.7
03 13.10 штиль 0 30 км 1/1 600 м
[Cb cap]
+22.7 +17.2 71 +28 +28 душно 1016.2 1013.5
06 13.10 Ю 3 40 км 1/1 600 м
[Cu Sc Ci sp]
+30.0 +16.4 44 +33 +43 душно 1016.8 1014.1 +24.4 +36.7
03 14.10 ЮВ 2 30 км 3/3 600 м
[Cu Sc]
+23.4 +17.4 69 +29 +29 душно 1016.1 1013.4
06 14.10 Ю 3 40 км 1/1 600 м
[Cu Sc]
+31.2 +16.0 40 +34 +43 душно 1016.6 1013.9 +24.8 +36.8
03 15.10 ЮВ 2 30 км 1/1 600 м
[Cu Sc]
+23.6 +17.6 69 +28 +28 душно 1016.0 1013.3
06 15.10 Ю 3 40 км 1/1 600 м
[Cu med, cong]
+30.2 +18.0 48 +35 +44 очень
душно
1017.0 1014.3 +24.7 +35.3
12 15.10 ЮЗ 3 40 км 1/1 600 м
[Cu med, cong Ci sp]
+37.2 +14.8 26 +38 +46 душно 1012.4 1009.7
15 15.10 Ю 4 30 км 3/1 600 м
[Cb cap Ci sp]
+29.0 +21.1 62 +36 +36 очень
душно
1013.0 1010.3 +37.2
03 16.10 штиль 0 30 км 3/3 600 м
[Cu Sc]
+22.8 +17.2 71 +28 +28 душно 1016.2 1013.5
06 16.10 Ю 3 40 км 4/4 600 м
[Cb cap]
+31.6 +19.6 49 +37 +44 очень
душно
1016.6 1013.9 +23.4 +37.2
09 16.10 Ю 4 40 км 4/4 600 м
[Cb cap]
+25.0 +17.7 64 +29 +38 душно 1014.2 1011.5
12 16.10 ЮЗ 5 40 км 5/5 600 м
[Cb cap]
+36.2 +19.8 38 +42 +44 опасность
перегрева
1012.3 1009.6
15 16.10 Ю 4 30 км 4/4 600 м
[Cb cap Ci sp]
+28.6 +22.2 68 +37 +37 очень
душно
1013.8 1011.1 +36.2
03 17.10 штиль 0 30 км 8/8 600 м
[Cb cap]
+22.4 +21.6 95 +30 +30 очень
душно
1015.8 1013.1
06 17.10 Ю 3 40 км 6/4 600 м
[Cb cap Ci sp]
+29.8 +20.5 57 +37 +42 очень
душно
1016.2 1013.5 +25.4 +36.2
09 17.10 Ю 3 40 км 6/5 600 м
[Cb cap]
+35.6 +19.2 38 +40 +49 очень
душно
1013.8 1011.1
12 17.10 З 5 30 км осадки на расстоянии 6/4 600 м
[Cb cap Ci sp]
+34.8 +20.6 44 +42 +45 опасность
перегрева
1011.4 1008.7
15 17.10 Ю 3 30 км осадки на расстоянии 5/5 600 м
[Cb cap]
+28.6 +21.9 67 +37 +37 очень
душно
1012.0 1009.3 +35.6

 

Местоположение метеостанции Antsohihy (Мадагаскар): широта -14.88 долгота 47.98 высота над уровнем моря 23 м.

В архиве по умолчанию представлена погода в Antsohihy за последнюю неделю. Архивные данные за месяц целиком и за предыдущие месяцы, начиная с января 2011 года, Вы можете получить, выбрав интересующий диапазон дат из раскрывающегося списка и нажав кнопку "Ввод!".


*Определитесь, кто Вы:
робот инопланетянин человек

Внимание! Время в таблицах - всемирное. Для получения местного времени необходимо прибавить поправку, которая в Antsohihy равна 3 ч.

Смотрите также архив погоды в соседних городах и на ближайших метеорологических станциях:

Погода в Fascene (Мадагаскар) (178 км)
Погода в Mahajanga (Мадагаскар) (195 км)
Погода в Antalaha (Мадагаскар) (244 км)
Погода в Sambava (Мадагаскар) (245 км)
Погода в Ambohitsilaozana (Мадагаскар) (311 км)
Погода в Nosy Boraha (Мадагаскар) (314 км)
Погода в Antsiranana (Мадагаскар) (316 км)
Погода в Dzaoudzi (Коморские Острова) (372 км)
Погода в Glorieuses Island (Реюньон) (385 км)
Погода в Toamasina (Мадагаскар) (390 км)

Пояснения к столбцам:

Ветер - указаны скорость ветра в м/с - средняя за 10 мин, порывы в срок и между сроками (в фигурных скобках) и направление, откуда дует ветер: С - северный, СВ - северо-восточный, В - восточный, ЮВ - юго-восточный, Ю - южный, ЮЗ - юго-западный, З - западный, СЗ - северо-западный.
Видимость - горизонтальная дальность видимости в метрах или километрах. При видимости от 1 до 10 км при отсутствии осадков обычно наблюдается дымка, при ухудшении видимости до 1 км и менее - туман. В сухую погоду видимость может ухудшаться дымом, пылью или мглою.
Явления - указаны атмосферные явления, наблюдавшиеся в срок или в последний час перед сроком; фигурными скобками обозначены явления, наблюдавшиеся между сроками (за 1-3 часа до срока); квадратными скобками обозначены град или гололедные отложения с указанием их диаметра в мм.
Облачность - указаны через наклонную черту общая и нижняя облачность в баллах и высота нижней границы облаков в метрах; квадратными скобками обозначены формы облаков: Ci - перистые, Cs - перисто-слоистые, Cc - перисто-кучевые, Ac - высококучевые, As - высокослоистые, Sc - слоисто-кучевые, Ns - слоисто-дождевые, Cu - кучевые, Cb - кучево-дождевые. Подробнее классификацию облаков см. в Атласе облаков (PDF).
T - Температура воздуха - температура, измеренная на высоте 2 м над землей.
Td - Температура точки росы - температура, при понижении до которой содержащийся в воздухе водяной пар достигнет насыщения.
f - Относительная влажность воздуха - влажноcть воздуха, измеренная на высоте 2 м над землей.
Te - Эффективная температура - температура, которую ощущает одетый по сезону человек в тени. Характеристика душности погоды. При расчете учитывается влияние влажности воздуха и скорости ветра на теплоощущения человека.
Tes - Эффективная температура на солнце - температура, которую ощущает человек, с поправкой на солнечный нагрев. Характеристика знойности погоды. Зависит от высоты солнца над горизонтом, облачности и скорости ветра. Ночью, в пасмурную погоду, а также при ветре 12 м/с и более поправка равна нулю.
P - Атмосферное давление - приведенное к уровню моря атмосферное давление.
Po - Атмосферное давление - измеренное на уровне метеостанции атмосферное давление.
Tmin - Минимальная температура - минимум температуры воздуха на высоте 2 м над землей.
Tmax - Максимальная температура - максимум температуры воздуха на высоте 2 м над землей.
R - Количество осадков - Количество выпавших осадков за период времени, мм. При наведении курсора мыши на число - период времени, за который выпало указанное количество осадков.
R24 - Количество осадков - Количество выпавших осадков за 24 часа, мм.
S - Снежный покров - Высота снежного покрова, см. При наведении курсора мыши на число - состояние снежного покрова и степень покрытия местности в баллах.